Ellensburg, WA

6:36 PM PST on December 10, 2016 (GMT -0800)
Bowers

Weather History for KELN - April, 2013

Change the Weather History Date:

Wednesday, April 3, 2013

  Actual Average (KYKM) Record (KYKM)
Temperature  
Mean Temperature 57 °F -  
Max Temperature 70 °F 60 °F 75 °F (2000)
Min Temperature 45 °F 31 °F 21 °F (1972)
Degree Days  
Heating Degree Days 8    
Growing Degree Days 7 (Base 50)    
Moisture  
Dew Point 35 °F    
Average Humidity 47    
Maximum Humidity 65    
Minimum Humidity 27    
Precipitation  
Precipitation 0.00 in - - ()
Sea Level Pressure  
Sea Level Pressure 30.04 in    
Wind  
Wind Speed 13 mph (NW)    
Max Wind Speed 20 mph    
Max Gust Speed 26 mph    
Visibility 10 miles    
Events      
Averages and records for this station are not official NWS values.
T = Trace of Precipitation, MM = Missing Value Source: NWS Daily Summary

Daily Weather History Graph

Daily Weather History Graph

Search for Another Location

Airport or City:

Trip Planner

Search our weather history database for the weather conditions in past years. The results will help you decide how hot, cold, wet, or windy it might be!

Date:

Astronomy

Apr. 03, 2013 Rise Set
Actual Time 6:36 AM PDT 7:34 PM PDT
Civil Twilight 6:05 AM PDT 8:05 PM PDT
Nautical Twilight 5:28 AM PDT 8:43 PM PDT
Astronomical Twilight 4:49 AM PDT 9:22 PM PDT
Moon 2:46 AM PDT (4/3) 12:28 PM PDT (4/3)
Length of Visible Light 14h 00m
Length of Day
12h 58m
Last Quarter, 43% of the Moon is Illuminated
Apr 3
Last Quarter
Apr 10
New
Apr 18
First Quarter
Apr 25
Full
May 2
Last Quarter

Hourly Weather History & Observations

Time (PDT) Temp. Windchill Dew Point Humidity Pressure Visibility Wind Dir Wind Speed Gust Speed Precip Events Conditions
12:53 AM 50.0 °F - 36.0 °F 59% 30.07 in 10.0 mi WNW 19.6 mph - N/A   Clear
1:53 AM 48.9 °F - 35.1 °F 59% 30.08 in 10.0 mi WNW 17.3 mph - N/A   Clear
2:53 AM 48.0 °F - 35.1 °F 61% 30.08 in 10.0 mi NW 19.6 mph 26.5 mph N/A   Clear
3:53 AM 45.0 °F 38.9 °F 34.0 °F 65% 30.09 in 10.0 mi NW 12.7 mph - N/A   Clear
4:53 AM 46.9 °F - 34.0 °F 61% 30.07 in 10.0 mi NW 19.6 mph - N/A   Clear
5:53 AM 45.0 °F 37.9 °F 34.0 °F 65% 30.09 in 10.0 mi NW 16.1 mph 19.6 mph N/A   Clear
6:53 AM 45.0 °F 38.2 °F 34.0 °F 65% 30.09 in 10.0 mi WNW 15.0 mph - N/A   Clear
7:53 AM 46.9 °F - 34.0 °F 61% 30.10 in 10.0 mi NW 15.0 mph - N/A   Clear
8:53 AM 52.0 °F - 34.0 °F 50% 30.10 in 10.0 mi NW 12.7 mph - N/A   Clear
9:53 AM 55.9 °F - 34.0 °F 44% 30.08 in 10.0 mi WNW 11.5 mph - N/A   Clear
10:53 AM 60.1 °F - 33.1 °F 36% 30.07 in 10.0 mi West 8.1 mph - N/A   Clear
11:53 AM 64.0 °F - 35.1 °F 34% 30.06 in 10.0 mi SW 4.6 mph - N/A   Clear
12:53 PM 66.0 °F - 35.1 °F 32% 30.05 in 10.0 mi Variable 4.6 mph - N/A   Clear
1:53 PM 69.1 °F - 36.0 °F 30% 30.04 in 10.0 mi SSE 5.8 mph - N/A   Clear
2:53 PM 69.1 °F - 34.0 °F 27% 30.02 in 10.0 mi SSW 3.5 mph - N/A   Clear
3:53 PM 69.1 °F - 35.1 °F 29% 30.01 in 10.0 mi Calm Calm - N/A   Clear
4:53 PM 69.1 °F - 34.0 °F 27% 30.00 in 10.0 mi Calm Calm - N/A   Clear
5:53 PM 66.0 °F - 36.0 °F 33% 30.00 in 10.0 mi WNW 10.4 mph - N/A   Clear
6:53 PM 61.0 °F - 35.1 °F 38% 29.99 in 10.0 mi NW 10.4 mph - N/A   Clear
7:53 PM 59.0 °F - 34.0 °F 39% 29.98 in 10.0 mi NNW 10.4 mph - N/A   Clear
8:53 PM 55.9 °F - 35.1 °F 45% 29.98 in 10.0 mi NNW 5.8 mph - N/A   Mostly Cloudy
9:53 PM 55.0 °F - 37.0 °F 51% 29.98 in 10.0 mi NW 3.5 mph - N/A   Mostly Cloudy
10:53 PM 54.0 °F - 35.1 °F 49% 29.96 in 10.0 mi NE 3.5 mph - N/A   Overcast
11:53 PM 51.1 °F - 36.0 °F 56% 29.95 in 10.0 mi NNE 3.5 mph - N/A   Overcast